sat.trackr.live / text

‹ back to catalog

ONEWEB-0594

NORAD 54660 · 2022-166U

PAYLOAD ACTIVE UNKNOWN

§ Identity

Operator
Country
UK
Launch date
2022-12-08
Launch site
AFETR
Launch vehicle
Mass (kg)
RCS (m²)

Purposes: comms

External: N2YO · Heavens-Above · Gunter

§ Orbital elements

Epoch: 2026-05-25T00:58:14.331360Z

Period
108.94 min
Inclination
87.9253°
Eccentricity
0.0001888
Mean motion
13.21827484 rev/d
Perigee alt
1,176.3 km
Apogee alt
1,179.2 km
Semi-major
7,555.9 km
B*
-1.4092e-5
RAAN
248.5980°
Arg perigee
100.6425°
Mean anomaly
259.4921°
Rev number
16,850

§ Raw data

ONEWEB-05941 54660U 22166U   26145.04044365  .00000007  00000+0 -14092-4 0  99992 54660  87.9253 248.5980 0001888 100.6425 259.4921 13.21827484168508

JSON: /api/v1/satellites/54660 · /tle

For live sub-satellite position, see the globe view (requires WebGL).

§ Visibility from observer

Set your observer location to see the next 7 days of passes ≥ 10°. The values pass through the URL so the page stays shareable.

No JS? Fill the form by hand. The geolocation button needs JavaScript.